STARLINK-33943 (63884 NORAD) Tracking and Keplerian Element Data

This shows tracking and keplerian element data for the satellite.

Feedback or suggestion? Click here.




ElementValue
Catalog63884
NameSTARLINK-33943
Epoch Orbit3530
Epoch Day354.2188338
Epoch Year2025
RAAN74.6557
Inclination70.0017
Eccentricity0.0003624
Argument of Perigee272.0494
Mean Anonmoly88.025
Mean Motion14.98322563
Decay Rate5.288E-05
L11 63884U 25094W 25354.21883380 .00005288 00000+0 45068-3 0 9999
L22 63884 70.0017 74.6557 0003624 272.0494 88.0250 14.98322563 35300



Live tracking and technical data element details for STARLINK-33943 (NORAD 63884). STARLINK-33943 can be tracked NOW for your location showing map with azimuth and elevation plus other details from your city location.







IsCatalogInMostPopularTable: catalog: 63884, numindb: 5
Update: records affected: 1



GetName: 63884 STARLINK-33943

Hit Count: updated at: Thu, 16 Apr 2026 05:25:01 GMT